Вернуться в каталог

STARLINK-37112

АктивенСвязьVLEO
NORAD 68707·PAYLOAD·🇺🇸 United States

Запущен Apr 14, 2026 с Cape Canaveral Space Force Station

Loading…

Ближайшие Пролёты (ближайшие 24 часа)

TLE

СвежийSource: CelesTrak SupGP

Эпоха: Sep 14, 2026, 22:43 UTC

1 68707C 26081J   26257.94701389  .00024984  00000+0  73807-3 0  2579
2 68707  53.1576 231.8715 0001281  96.0274 255.6581 15.34381726    17

Отслеживайте STARLINK-37112 в реальном времени с AllMySat

Download on the App Store